Simultaneous Nadir Overpasses (SNOs) Predictions

Prediction of SNOs between GOES-16 and NOAA-20 Satellite Orbit:

Table of predicted SNOs for the next 14.0 days since TLE Epoch: 8/19/2023
Index Date Time (GOES-16) GOES-16 Lat,Lon NOAA-20 Lat,Lon Distance(km) Time Diff (sec)
1 08/19/2023 18:27:43 -0.04, -75.21 -0.17, -75.86 72.89 80
2 08/20/2023 18:11:38 -0.04, -75.22 0.82, -71.32 444.13 80
3 08/22/2023 06:33:25 0.04, -75.22 0.36, -76.59 156.15 80
4 08/23/2023 06:12:01 0.04, -75.23 -0.69, -72.06 360.90 80
5 08/24/2023 18:33:56 -0.03, -75.24 -0.52, -77.36 242.14 80
6 08/25/2023 18:17:51 -0.03, -75.25 0.53, -72.84 274.91 80
7 08/27/2023 06:39:39 0.02, -75.25 0.64, -78.11 325.46 80
8 08/28/2023 06:18:13 0.00, -75.26 -0.36, -73.58 191.48 80
9 08/29/2023 18:40:09 0.01, -75.28 -0.77, -78.89 411.15 80
10 08/30/2023 18:24:04 0.00, -75.29 0.22, -74.36 106.72 80
11 09/01/2023 06:45:51 -0.00, -75.31 0.94, -79.63 491.75 80
